Home > Weather > Tofol > Past weeks

Flag for Micronesia Past Weather in Tofol, Kosrae, Micronesia — Yesterday and Last 2 Weeks

Now
86 °F

Mostly cloudy.


Feels Like: 97 °F
Forecast: 82 / 85 °F
Wind: 12 mph from East

Location: Pohnpei

Current Time: Jul 27, 2016 at 4:52:26 PM

Latest Report: Jul 27, 2016 at 3:52 PM


Visibility: 15 mi

Pressure: 29.75 "Hg

Humidity: 73%

Dew Point: 76 °F

Location of TofolLocation

Past Weather in Tofol — Graph

°F

Tofol Temperature Yesterday

Maximum temperature yesterday: 87 °F (at 11:50 AM)
Minimum temperature yesterday: 75 °F (at 7:52 AM)
Average temperature yesterday: 80 °F

High & Low Weather Summary for the Past Weeks

 TemperatureHumidityPressure
High90 °F (Jul 15, 11:55 AM)98% (Jul 14, 5:52 AM)29.93 "Hg (Jul 14, 5:52 AM)
Low73 °F (Jul 23, 8:57 AM)57% (Jul 13, 10:56 AM)29.74 "Hg (Jul 23, 3:52 PM)
Average81 °F85%29.84 "Hg
* Reported Jul 12 2:52 PM — Jul 27 2:52 PM, Tofol, Weather by CustomWeather, © 2016

Note: Actual official high and low records may vary slightly from our data, if they occured in-between our weather recording intervals... More about our weather records

Advertising

Tofol Weather History for the Previous 24 Hours

Scroll right to see more
 ConditionsComfort  
Time TempWeatherWind HumidityBarometerVisibility
2:52 PM
Wed, Jul 27
87 °FBroken clouds.7 mph73%29.75 "Hg15 mi
1:50 PM87 °FBroken clouds.12 mph72%29.77 "Hg15 mi
12:50 PM87 °FBroken clouds.9 mph75%29.79 "Hg15 mi
11:50 AM87 °FBroken clouds.9 mph75%29.81 "Hg15 mi
10:51 AM87 °FCloudy.10 mph73%29.83 "Hg15 mi
9:50 AM85 °FMostly cloudy.5 mph77%29.84 "Hg15 mi
8:50 AM82 °FCloudy.5 mph86%29.83 "Hg15 mi
7:52 AM80 °FMostly cloudy.2 mph94%29.83 "Hg15 mi
6:54 AM78 °FCloudy.2 mph94%29.80 "Hg15 mi
5:50 AM78 °FOvercast.9 mph95%29.80 "Hg15 mi
4:52 AM77 °FMostly cloudy.5 mph95%29.79 "Hg15 mi
3:51 AM78 °FMostly cloudy.5 mph94%29.78 "Hg15 mi
2:53 AM77 °FMostly cloudy.6 mph90%29.79 "Hg15 mi
1:55 AM78 °FMostly cloudy.5 mph93%29.80 "Hg15 mi
12:53 AM77 °FMostly cloudy.5 mph96%29.82 "Hg15 mi
11:52 PM
Tue, Jul 26
77 °FMostly cloudy.6 mph95%29.82 "Hg15 mi
10:56 PM78 °FMostly cloudy.3 mph92%29.82 "Hg15 mi
9:52 PM78 °FMostly cloudy.3 mph97%29.82 "Hg15 mi
8:52 PM79 °FMostly cloudy.3 mph92%29.81 "Hg15 mi
7:54 PM80 °FMostly cloudy.5 mph88%29.81 "Hg15 mi
6:52 PM82 °FMostly cloudy.5 mph81%29.80 "Hg15 mi
5:52 PM83 °FMostly cloudy.5 mph82%29.80 "Hg15 mi
4:52 PM83 °FMostly cloudy.3 mph77%29.80 "Hg15 mi
Weather by CustomWeather, © 2016

See weather overviewHow to use our weather pages